TimeMDT,TemperatureF,Dew PointF,Humidity,Sea Level PressureIn,VisibilityMPH,Wind Direction,Wind SpeedMPH,Gust SpeedMPH,PrecipitationIn,Events,Conditions,WindDirDegrees,DateUTC
12:53 AM,59.0,43.0,55,30.13,10.0,Calm,Calm,-,N/A,,Clear,0,2013-05-11 06:53:00
1:53 AM,57.0,44.1,62,30.14,10.0,Calm,Calm,-,N/A,,Clear,0,2013-05-11 07:53:00
2:53 AM,55.9,43.0,62,30.14,10.0,West,3.5,-,N/A,,Clear,260,2013-05-11 08:53:00
3:53 AM,54.0,42.1,64,30.15,10.0,Calm,Calm,-,N/A,,Clear,0,2013-05-11 09:53:00
4:53 AM,54.0,39.0,57,30.16,10.0,West,4.6,-,N/A,,Clear,260,2013-05-11 10:53:00
5:53 AM,51.1,39.0,63,30.17,10.0,West,3.5,-,N/A,,Clear,280,2013-05-11 11:53:00
6:53 AM,52.0,39.9,63,30.17,10.0,Calm,Calm,-,N/A,,Clear,0,2013-05-11 12:53:00
7:53 AM,54.0,42.1,64,30.18,10.0,Calm,Calm,-,N/A,,Clear,0,2013-05-11 13:53:00
8:53 AM,59.0,42.1,53,30.19,10.0,Calm,Calm,-,N/A,,Clear,0,2013-05-11 14:53:00
9:53 AM,64.9,43.0,45,30.20,10.0,Calm,Calm,-,N/A,,Clear,0,2013-05-11 15:53:00
10:53 AM,71.1,43.0,36,30.19,10.0,Calm,Calm,-,N/A,,Clear,0,2013-05-11 16:53:00
11:53 AM,77.0,43.0,30,30.17,10.0,Variable,3.5,-,N/A,,Clear,0,2013-05-11 17:53:00
12:53 PM,80.1,45.0,29,30.15,10.0,SE,4.6,-,N/A,,Clear,140,2013-05-11 18:53:00
1:53 PM,84.9,43.0,23,30.12,10.0,SE,3.5,-,N/A,,Clear,140,2013-05-11 19:53:00
2:53 PM,88.0,37.0,16,30.09,10.0,Variable,4.6,-,N/A,,Clear,0,2013-05-11 20:53:00
3:53 PM,90.0,37.0,15,30.07,10.0,Variable,5.8,-,N/A,,Clear,0,2013-05-11 21:53:00
4:53 PM,91.9,33.1,12,30.04,10.0,Calm,Calm,-,N/A,,Clear,0,2013-05-11 22:53:00
5:53 PM,90.0,35.1,14,30.03,10.0,Variable,5.8,-,N/A,,Clear,0,2013-05-11 23:53:00
6:53 PM,90.0,36.0,15,30.02,10.0,NNE,6.9,-,N/A,,Clear,20,2013-05-12 00:53:00
8:53 PM,82.9,43.0,24,30.00,10.0,Calm,Calm,-,N/A,,Clear,0,2013-05-12 02:53:00
9:53 PM,75.0,46.0,36,30.02,10.0,Calm,Calm,-,N/A,,Clear,0,2013-05-12 03:53:00
10:53 PM,69.1,46.9,45,30.02,10.0,Calm,Calm,-,N/A,,Clear,0,2013-05-12 04:53:00
11:53 PM,64.9,48.0,54,30.02,10.0,West,3.5,-,N/A,,Clear,280,2013-05-12 05:53:00